Time,TemperatureF,DewpointF,PressureIn,WindDirection,WindDirectionDegrees,WindSpeedMPH,WindSpeedGustMPH,Humidity,HourlyPrecipIn,Conditions,Clouds,dailyrainin,SoftwareType,DateUTC
2013-12-22 00:12:00,33.0,32.0,29.41,NE,40,5.0,11.0,97,0.00,,,0.00,,2013-12-22 05:12:00,
2013-12-22 00:22:00,33.0,32.0,29.41,NE,40,5.0,11.0,97,0.00,,,0.00,,2013-12-22 05:22:00,
2013-12-22 00:43:00,33.0,32.0,29.39,NNE,32,7.0,11.0,97,0.00,,,0.00,,2013-12-22 05:43:00,
2013-12-22 00:53:00,33.0,32.0,29.37,NE,41,7.0,13.0,97,0.00,,,0.00,,2013-12-22 05:53:00,
2013-12-22 01:12:00,33.0,32.0,29.37,NNE,31,5.0,12.0,97,0.00,,,0.00,,2013-12-22 06:12:00,
2013-12-22 01:22:00,33.0,32.0,29.34,NE,46,5.0,13.0,97,0.00,,,0.00,,2013-12-22 06:22:00,
2013-12-22 01:42:00,33.0,32.0,29.36,NE,38,6.0,11.0,97,0.00,,,0.00,,2013-12-22 06:42:00,
2013-12-22 01:52:00,33.0,32.0,29.36,NE,38,6.0,11.0,97,0.00,,,0.00,,2013-12-22 06:52:00,
2013-12-22 02:11:00,33.0,32.0,29.35,NNE,29,4.0,8.0,97,0.00,,,0.00,,2013-12-22 07:11:00,
2013-12-22 02:22:00,33.0,32.0,29.35,NNE,29,4.0,8.0,97,0.00,,,0.00,,2013-12-22 07:22:00,
2013-12-22 02:42:00,33.0,32.0,29.32,NNE,28,8.0,11.0,97,0.00,,,0.00,,2013-12-22 07:42:00,
2013-12-22 02:52:00,33.0,32.0,29.36,NNE,23,4.0,9.0,97,0.00,,,0.00,,2013-12-22 07:52:00,
2013-12-22 03:02:00,33.0,32.0,29.36,NNE,23,4.0,9.0,97,0.00,,,0.00,,2013-12-22 08:02:00,
2013-12-22 03:11:00,33.0,32.0,29.36,NNE,23,4.0,9.0,97,0.00,,,0.00,,2013-12-22 08:11:00,
2013-12-22 03:22:00,33.0,32.0,29.32,NE,41,5.0,13.0,97,0.00,,,0.00,,2013-12-22 08:22:00,
2013-12-22 03:42:00,33.0,32.0,29.37,NNE,27,5.0,11.0,97,0.00,,,0.00,,2013-12-22 08:42:00,
2013-12-22 03:52:00,33.0,32.0,29.37,NNE,27,5.0,11.0,97,0.00,,,0.00,,2013-12-22 08:52:00,
2013-12-22 04:12:00,33.0,32.0,29.36,NNE,26,5.0,11.0,97,0.00,,,0.00,,2013-12-22 09:12:00,
2013-12-22 04:22:00,33.0,32.0,29.36,NNE,26,5.0,11.0,97,0.00,,,0.00,,2013-12-22 09:22:00,
2013-12-22 04:33:00,33.0,32.0,29.36,NNE,26,5.0,11.0,97,0.00,,,0.00,,2013-12-22 09:33:00,
2013-12-22 04:43:00,33.0,32.0,29.36,NNE,26,5.0,11.0,97,0.00,,,0.00,,2013-12-22 09:43:00,
2013-12-22 05:13:00,33.0,32.0,29.34,NNE,28,5.0,11.0,97,0.00,,,0.00,,2013-12-22 10:13:00,
2013-12-22 05:23:00,33.0,32.0,29.34,NNE,28,5.0,11.0,97,0.00,,,0.00,,2013-12-22 10:23:00,
2013-12-22 05:42:00,33.0,32.0,29.31,NNE,32,7.0,13.0,97,0.00,,,0.00,,2013-12-22 10:42:00,
2013-12-22 05:54:00,33.0,32.0,29.32,NE,38,4.0,9.0,97,0.00,,,0.00,,2013-12-22 10:54:00,
2013-12-22 06:02:00,33.0,32.0,29.32,NE,38,4.0,9.0,97,0.00,,,0.00,,2013-12-22 11:02:00,
2013-12-22 06:12:00,33.0,32.0,29.32,NE,38,4.0,9.0,97,0.00,,,0.00,,2013-12-22 11:12:00,
2013-12-22 06:22:00,33.0,32.0,29.32,NE,38,4.0,9.0,97,0.00,,,0.00,,2013-12-22 11:22:00,
2013-12-22 06:42:00,33.0,32.0,29.31,NE,42,2.0,8.0,97,0.00,,,0.00,,2013-12-22 11:42:00,
2013-12-22 06:53:00,33.0,32.0,29.29,NE,43,4.0,8.0,97,0.00,,,0.00,,2013-12-22 11:53:00,
2013-12-22 07:22:00,33.0,32.0,29.30,NE,43,3.0,5.0,97,0.00,,,0.00,,2013-12-22 12:22:00,
2013-12-22 07:30:00,33.0,32.0,29.31,NNE,26,1.0,5.0,97,0.00,,,0.00,,2013-12-22 12:30:00,
2013-12-22 07:52:00,33.0,32.0,29.31,NNE,26,1.0,5.0,97,0.00,,,0.00,,2013-12-22 12:52:00,
2013-12-22 08:12:00,33.0,32.0,29.31,NNE,26,1.0,5.0,97,0.00,,,0.00,,2013-12-22 13:12:00,
2013-12-22 08:22:00,33.0,32.0,29.31,NNE,26,1.0,5.0,97,0.00,,,0.00,,2013-12-22 13:22:00,
2013-12-22 09:22:00,34.0,33.0,29.35,North,3,0.0,4.0,97,0.00,,,0.00,,2013-12-22 14:22:00,
2013-12-22 09:32:00,34.0,33.0,29.35,North,3,0.0,4.0,97,0.00,,,0.00,,2013-12-22 14:32:00,
2013-12-22 09:42:00,34.0,33.0,29.35,North,3,0.0,4.0,97,0.00,,,0.00,,2013-12-22 14:42:00,
2013-12-22 09:52:00,34.0,33.0,29.37,North,5,1.0,2.0,97,0.00,,,0.00,,2013-12-22 14:52:00,
2013-12-22 10:12:00,34.0,33.0,29.36,NNW,345,1.0,3.0,97,0.00,,,0.00,,2013-12-22 15:12:00,
2013-12-22 10:22:00,34.0,33.0,29.37,NW,318,0.0,2.0,97,0.00,,,0.00,,2013-12-22 15:22:00,
2013-12-22 10:33:00,34.0,33.0,29.37,NW,318,0.0,2.0,97,0.00,,,0.00,,2013-12-22 15:33:00,
2013-12-22 10:43:00,34.0,33.0,29.37,NW,318,0.0,2.0,97,0.00,,,0.00,,2013-12-22 15:43:00,
2013-12-22 10:54:00,35.0,34.0,29.36,ENE,62,2.0,3.0,97,0.00,,,0.00,,2013-12-22 15:54:00,
2013-12-22 11:13:00,35.0,34.0,29.38,NE,47,0.0,3.0,97,0.00,,,0.00,,2013-12-22 16:13:00,
2013-12-22 11:23:00,35.0,34.0,29.38,NE,47,0.0,3.0,97,0.00,,,0.00,,2013-12-22 16:23:00,
2013-12-22 11:33:00,35.0,34.0,29.38,NE,47,0.0,3.0,97,0.00,,,0.00,,2013-12-22 16:33:00,
2013-12-22 11:43:00,35.0,34.0,29.38,NE,47,0.0,3.0,97,0.00,,,0.00,,2013-12-22 16:43:00,
2013-12-22 12:43:00,37.0,36.0,29.39,SW,223,5.0,13.0,97,0.00,,,0.00,,2013-12-22 17:43:00,
2013-12-22 12:53:00,37.0,36.0,29.39,SW,223,5.0,13.0,97,0.00,,,0.00,,2013-12-22 17:53:00,
2013-12-22 13:02:00,37.0,36.0,29.39,SW,223,5.0,13.0,97,0.00,,,0.00,,2013-12-22 18:02:00,
2013-12-22 13:12:00,37.0,36.0,29.39,SW,223,5.0,13.0,97,0.00,,,0.00,,2013-12-22 18:12:00,
2013-12-22 13:22:00,37.0,36.0,29.41,SW,231,9.0,16.0,97,0.00,,,0.00,,2013-12-22 18:22:00,
2013-12-22 13:33:00,37.0,36.0,29.41,SW,231,9.0,16.0,97,0.00,,,0.00,,2013-12-22 18:33:00,
2013-12-22 13:42:00,37.0,36.0,29.41,SW,231,9.0,16.0,97,0.00,,,0.00,,2013-12-22 18:42:00,
2013-12-22 13:52:00,38.0,37.0,29.43,SW,232,10.0,17.0,97,0.00,,,0.00,,2013-12-22 18:52:00,
2013-12-22 14:13:00,38.0,37.0,29.45,WSW,246,11.0,15.0,97,0.00,,,0.00,,2013-12-22 19:13:00,
2013-12-22 14:22:00,38.0,37.0,29.46,WSW,257,4.0,16.0,97,0.00,,,0.00,,2013-12-22 19:22:00,
2013-12-22 14:32:00,38.0,37.0,29.46,WSW,257,4.0,16.0,97,0.00,,,0.00,,2013-12-22 19:32:00,
2013-12-22 14:42:00,38.0,37.0,29.46,WSW,257,4.0,16.0,97,0.00,,,0.00,,2013-12-22 19:42:00,
2013-12-22 14:52:00,38.0,37.0,29.46,WSW,257,4.0,16.0,97,0.00,,,0.00,,2013-12-22 19:52:00,
2013-12-22 15:12:00,38.0,37.0,29.47,WSW,249,6.0,16.0,97,0.00,,,0.00,,2013-12-22 20:12:00,
2013-12-22 15:22:00,38.0,37.0,29.49,West,264,4.0,17.0,97,0.00,,,0.00,,2013-12-22 20:22:00,
2013-12-22 15:53:00,38.0,37.0,29.50,West,268,5.0,14.0,97,0.00,,,0.00,,2013-12-22 20:53:00,
2013-12-22 16:12:00,38.0,37.0,29.52,West,272,6.0,14.0,97,0.00,,,0.00,,2013-12-22 21:12:00,
2013-12-22 16:22:00,38.0,37.0,29.52,West,272,6.0,14.0,97,0.00,,,0.00,,2013-12-22 21:22:00,
2013-12-22 16:33:00,38.0,37.0,29.52,West,272,6.0,14.0,97,0.00,,,0.00,,2013-12-22 21:33:00,
2013-12-22 16:43:00,38.0,37.0,29.52,West,272,6.0,14.0,97,0.00,,,0.00,,2013-12-22 21:43:00,
2013-12-22 16:53:00,38.0,37.0,29.54,West,268,4.0,13.0,97,0.00,,,0.00,,2013-12-22 21:53:00,
2013-12-22 17:13:00,38.0,37.0,29.55,West,267,4.0,12.0,97,0.00,,,0.00,,2013-12-22 22:13:00,
2013-12-22 17:23:00,38.0,37.0,29.55,West,267,4.0,12.0,97,0.00,,,0.00,,2013-12-22 22:23:00,
2013-12-22 17:43:00,37.0,36.0,29.57,WSW,250,5.0,10.0,97,0.00,,,0.00,,2013-12-22 22:43:00,
2013-12-22 17:53:00,37.0,36.0,29.57,WSW,250,5.0,10.0,97,0.00,,,0.00,,2013-12-22 22:53:00,
2013-12-22 18:02:00,37.0,36.0,29.57,WSW,250,5.0,10.0,97,0.00,,,0.00,,2013-12-22 23:02:00,
2013-12-22 18:12:00,37.0,36.0,29.57,WSW,250,5.0,10.0,97,0.00,,,0.00,,2013-12-22 23:12:00,
2013-12-22 18:22:00,37.0,36.0,29.60,West,268,4.0,13.0,97,0.00,,,0.00,,2013-12-22 23:22:00,
2013-12-22 18:42:00,37.0,36.0,29.60,West,277,3.0,6.0,97,0.00,,,0.00,,2013-12-22 23:42:00,
2013-12-22 18:53:00,37.0,36.0,29.61,West,277,1.0,6.0,97,0.00,,,0.00,,2013-12-22 23:53:00,
2013-12-22 19:11:00,37.0,36.0,29.61,West,260,1.0,3.0,97,0.00,,,0.00,,2013-12-23 00:11:00,
2013-12-22 19:22:00,37.0,36.0,29.61,West,260,1.0,3.0,97,0.00,,,0.00,,2013-12-23 00:22:00,
2013-12-22 19:42:00,37.0,36.0,29.62,WSW,258,3.0,6.0,97,0.00,,,0.00,,2013-12-23 00:42:00,
2013-12-22 19:52:00,36.0,35.0,29.63,West,262,2.0,6.0,97,0.00,,,0.00,,2013-12-23 00:52:00,
2013-12-22 20:02:00,36.0,35.0,29.63,West,262,2.0,6.0,97,0.00,,,0.00,,2013-12-23 01:02:00,
2013-12-22 20:11:00,36.0,35.0,29.63,West,262,2.0,6.0,97,0.00,,,0.00,,2013-12-23 01:11:00,
2013-12-22 20:22:00,36.0,35.0,29.63,West,262,2.0,6.0,97,0.00,,,0.00,,2013-12-23 01:22:00,
2013-12-22 20:42:00,37.0,36.0,29.64,SW,223,1.0,4.0,97,0.00,,,0.00,,2013-12-23 01:42:00,
2013-12-22 20:53:00,37.0,36.0,29.64,SW,223,1.0,4.0,97,0.00,,,0.00,,2013-12-23 01:53:00,
2013-12-22 21:12:00,37.0,36.0,29.65,SW,224,3.0,5.0,97,0.00,,,0.00,,2013-12-23 02:12:00,
2013-12-22 21:22:00,37.0,36.0,29.65,SW,224,3.0,5.0,97,0.00,,,0.00,,2013-12-23 02:22:00,
2013-12-22 21:32:00,37.0,36.0,29.65,SW,224,3.0,5.0,97,0.00,,,0.00,,2013-12-23 02:32:00,
2013-12-22 21:42:00,37.0,36.0,29.65,SW,224,3.0,5.0,97,0.00,,,0.00,,2013-12-23 02:42:00,
2013-12-22 21:52:00,37.0,36.0,29.65,WSW,249,2.0,5.0,97,0.00,,,0.00,,2013-12-23 02:52:00,
2013-12-22 22:02:00,37.0,36.0,29.65,WSW,249,2.0,5.0,97,0.00,,,0.00,,2013-12-23 03:02:00,
2013-12-22 22:12:00,37.0,36.0,29.65,WSW,249,2.0,5.0,97,0.00,,,0.00,,2013-12-23 03:12:00,
2013-12-22 22:22:00,36.0,35.0,29.65,WSW,253,2.0,3.0,97,0.00,,,0.00,,2013-12-23 03:22:00,
2013-12-22 22:33:00,36.0,35.0,29.65,WSW,253,2.0,3.0,97,0.00,,,0.00,,2013-12-23 03:33:00,
2013-12-22 22:43:00,36.0,35.0,29.65,WSW,253,2.0,3.0,97,0.00,,,0.00,,2013-12-23 03:43:00,
2013-12-22 22:54:00,37.0,36.0,29.65,SSW,196,0.0,2.0,97,0.00,,,0.00,,2013-12-23 03:54:00,
2013-12-22 23:00:00,37.0,36.0,29.67,SSW,201,2.0,4.0,97,0.00,,,0.00,,2013-12-23 04:00:00,
2013-12-22 23:03:00,37.0,36.0,29.65,SSW,196,0.0,2.0,97,0.00,,,0.00,,2013-12-23 04:03:00,
2013-12-22 23:13:00,37.0,36.0,29.65,SSW,196,0.0,2.0,97,0.00,,,0.00,,2013-12-23 04:13:00,
2013-12-22 23:23:00,37.0,36.0,29.67,SSW,201,2.0,4.0,97,0.00,,,0.00,,2013-12-23 04:23:00,
2013-12-22 23:33:00,37.0,36.0,29.67,SSW,201,2.0,4.0,97,0.00,,,0.00,,2013-12-23 04:33:00,
2013-12-22 23:43:00,37.0,36.0,29.67,SSW,201,2.0,4.0,97,0.00,,,0.00,,2013-12-23 04:43:00,
2013-12-22 23:53:00,37.0,36.0,29.67,SSW,201,2.0,4.0,97,0.00,,,0.00,,2013-12-23 04:53:00,